San Lorenzo, CA

6:13 PM PST on February 09, 2016 (GMT -0800)
Hayward Executive

Weather History for KHWD - March, 2014

Change the Weather History Date:

Sunday, March 23, 2014

  Actual Average Record
Temperature  
Mean Temperature 56 °F 56 °F  
Max Temperature 65 °F 64 °F 73 °F (2007)
Min Temperature 47 °F 48 °F 38 °F (2009)
Degree Days  
Heating Degree Days 9    
Month to date heating degree days 151  
Since 1 July heating degree days 1669  
Cooling Degree Days 0    
Month to date cooling degree days 0  
Year to date cooling degree days 0  
Growing Degree Days 5 (Base 50)    
Moisture  
Dew Point 47 °F    
Average Humidity 75    
Maximum Humidity 93    
Minimum Humidity 56    
Precipitation  
Precipitation 0.00 in - 0.57 in (2002)
Month to date precipitation 0.26  
Year to date precipitation 2.63  
Since 1 July precipitation 3.83  
Sea Level Pressure  
Sea Level Pressure 30.16 in    
Wind  
Wind Speed 5 mph (NW)    
Max Wind Speed 14 mph    
Max Gust Speed 16 mph    
Visibility 10 miles    
Events      
T = Trace of Precipitation, MM = Missing Value Source: NWS Daily Summary

Daily Weather History Graph

Daily Weather History Graph

Search for Another Location

Airport or City:

Trip Planner

Search our weather history database for the weather conditions in past years. The results will help you decide how hot, cold, wet, or windy it might be!

Date:

Astronomy

Mar. 23, 2014 Rise Set
Actual Time 7:07 AM PDT 7:23 PM PDT
Civil Twilight 6:41 AM PDT 7:49 PM PDT
Nautical Twilight 6:10 AM PDT 8:20 PM PDT
Astronomical Twilight 5:39 AM PDT 8:51 PM PDT
Moon 1:39 AM PDT (3/23) 11:59 AM PDT (3/23)
Length of Visible Light 13h 08m
Length of Day
12h 15m
Waning Gibbous, 53% of the Moon is Illuminated
Mar 23
Waning Gibbous
Mar 23
Last Quarter
Mar 30
New
Apr 7
First Quarter
Apr 15
Full

Hourly Weather History & Observations

Time (PDT) Temp. Dew Point Humidity Pressure Visibility Wind Dir Wind Speed Gust Speed Precip Events Conditions
12:54 AM 50.0 °F 46.0 °F 86% 30.16 in 10.0 mi NNE 3.5 mph - N/A   Partly Cloudy
1:22 AM 50.0 °F 46.4 °F 87% 30.13 in 10.0 mi NNE 3.5 mph - N/A   Mostly Cloudy
1:41 AM 50.0 °F 46.4 °F 87% 30.13 in 10.0 mi Calm Calm - N/A   Scattered Clouds
1:54 AM 48.9 °F 45.0 °F 86% 30.16 in 10.0 mi NE 3.5 mph - N/A   Scattered Clouds
2:54 AM 48.0 °F 44.1 °F 86% 30.16 in 10.0 mi Calm Calm - N/A   Clear
3:28 AM 46.4 °F 44.6 °F 93% 30.13 in 10.0 mi Calm Calm - N/A   Mostly Cloudy
3:54 AM 46.9 °F 44.1 °F 90% 30.16 in 10.0 mi Calm Calm - N/A   Mostly Cloudy
4:54 AM 48.9 °F 45.0 °F 86% 30.16 in 10.0 mi Calm Calm - N/A   Overcast
5:54 AM 50.0 °F 46.0 °F 86% 30.16 in 10.0 mi NW 3.5 mph - N/A   Overcast
6:54 AM 50.0 °F 46.0 °F 86% 30.18 in 10.0 mi NW 4.6 mph - N/A   Overcast
7:54 AM 50.0 °F 46.0 °F 86% 30.19 in 10.0 mi NW 5.8 mph - N/A   Overcast
8:54 AM 51.1 °F 46.9 °F 86% 30.19 in 10.0 mi Calm Calm - N/A   Overcast
9:41 AM 51.8 °F 46.4 °F 82% 30.17 in 10.0 mi Calm Calm - N/A   Scattered Clouds
9:54 AM 51.1 °F 46.0 °F 83% 30.20 in 10.0 mi Calm Calm - N/A   Clear
10:54 AM 55.0 °F 48.0 °F 77% 30.21 in 10.0 mi Calm Calm - N/A   Clear
11:54 AM 57.0 °F 48.0 °F 72% 30.20 in 10.0 mi WNW 4.6 mph - N/A   Clear
12:54 PM 57.9 °F 48.0 °F 70% 30.19 in 10.0 mi Calm Calm - N/A   Clear
1:54 PM 63.0 °F 46.0 °F 54% 30.17 in 10.0 mi WNW 9.2 mph - N/A   Clear
2:54 PM 63.0 °F 48.9 °F 60% 30.15 in 10.0 mi WNW 12.7 mph - N/A   Clear
3:54 PM 64.0 °F 48.9 °F 58% 30.14 in 10.0 mi WNW 10.4 mph - N/A   Clear
4:54 PM 63.0 °F 48.9 °F 60% 30.12 in 10.0 mi WNW 11.5 mph - N/A   Clear
5:54 PM 62.1 °F 48.9 °F 62% 30.12 in 10.0 mi WNW 9.2 mph - N/A   Clear
6:54 PM 59.0 °F 48.9 °F 69% 30.12 in 10.0 mi WNW 10.4 mph - N/A   Clear
7:54 PM 55.0 °F 48.0 °F 77% 30.13 in 10.0 mi NW 9.2 mph - N/A   Clear
8:54 PM 53.1 °F 46.9 °F 80% 30.14 in 10.0 mi NNW 4.6 mph - N/A   Clear
9:54 PM 52.0 °F 46.9 °F 83% 30.14 in 10.0 mi NW 3.5 mph - N/A   Clear
10:54 PM 52.0 °F 46.9 °F 83% 30.15 in 10.0 mi Calm Calm - N/A   Clear
11:54 PM 52.0 °F 48.0 °F 86% 30.15 in 10.0 mi NNE 3.5 mph - N/A   Clear